EDT,Max TemperatureF,Mean TemperatureF,Min TemperatureF,Max Dew PointF,MeanDew PointF,Min DewpointF,Max Humidity, Mean Humidity, Min Humidity, Max Sea Level PressureIn, Mean Sea Level PressureIn, Min Sea Level PressureIn, Max VisibilityMiles, Mean VisibilityMiles, Min VisibilityMiles, Max Wind SpeedMPH, Mean Wind SpeedMPH, Max Gust SpeedMPH,PrecipitationIn, CloudCover, Events, WindDirDegrees
2011-10-1,44,42,41,45,44,41,100,100,100,,,,0,0,0,34,20,45,1.45,,Fog-Rain,117
2011-10-2,48,44,39,48,43,39,100,100,100,,,,0,0,0,54,42,71,0.79,,Fog-Rain,107
2011-10-3,42,38,35,43,38,30,100,95,65,,,,10,1,0,29,20,30,0.08,3,Fog-Rain,136
2011-10-4,37,35,33,37,35,32,100,99,87,,,,15,1,0,38,22,50,0.19,7,Fog-Rain,53
2011-10-5,35,28,19,36,25,14,100,94,74,,,,0,0,0,60,44,71,0.20,1,Fog,328
2011-10-6,23,19,15,16,9,-9,93,65,26,,,,,,,81,60,89,0.00,2,,317
2011-10-7,44,31,21,41,13,-13,99,54,13,,,,20,20,20,52,43,60,0.00,3,Fog,321
2011-10-8,51,46,42,41,36,28,87,70,41,,,,,,,67,49,72,0.00,3,,314
2011-10-9,51,48,46,43,33,21,87,56,32,,,,,,,64,56,75,0.00,2,,305
2011-10-10,50,44,39,46,37,-18,100,85,5,,,,0,0,0,71,58,78,0.00,1,Fog,316
2011-10-11,51,48,44,10,-17,-38,22,8,4,,,,,,,14,11,,0.00,5,,350
2011-10-12,46,42,39,21,-7,-53,42,14,4,,,,,,,25,11,26,0.00,7,,184
2011-10-13,48,44,39,48,41,27,100,92,53,,,,0,0,0,31,21,29,0.49,6,Fog-Rain,150
2011-10-14,50,48,44,50,48,45,100,100,100,,,,0,0,0,47,30,55,2.56,,Fog-Rain,157
2011-10-15,42,34,26,43,32,27,100,100,100,,,,0,0,0,71,42,83,4.48,,Fog-Rain-Snow,245
2011-10-16,30,27,24,30,27,25,100,99,86,,,,0,0,0,77,64,91,0.09,6,Fog-Rain-Snow,266
2011-10-17,32,28,24,32,26,25,100,99,93,,,,0,0,0,63,50,76,0.19,7,Fog-Rain-Snow,268
2011-10-18,30,28,26,30,28,27,100,100,100,,,,0,0,0,61,49,59,0.13,,Fog-Snow,273
2011-10-19,42,36,30,43,31,21,100,85,52,,,,3,0,0,66,36,77,0.18,8,Fog-Rain,161
2011-10-20,48,40,33,48,41,34,100,100,100,,,,0,0,0,51,38,61,0.46,,Fog-Rain,161
2011-10-21,30,28,26,30,29,27,100,100,100,,,,0,0,0,51,39,52,0.10,,Fog-Rain-Snow,264
2011-10-22,28,26,24,28,27,25,100,100,100,,,,0,0,0,37,19,,0.35,,Fog-Snow,283
2011-10-23,33,28,23,28,22,1,100,84,31,,,,2,0,0,34,22,,0.05,4,Fog,269
2011-10-24,32,28,23,32,25,12,100,85,44,,,,0,0,0,51,24,43,0.00,4,Fog-Snow,264
2011-10-25,28,24,19,28,24,19,100,100,100,,,,0,0,0,72,57,78,0.22,,Fog-Snow,287
2011-10-26,24,20,17,23,12,-4,100,71,36,,,,20,6,0,64,44,74,0.00,6,Fog-Snow,309
2011-10-27,24,17,10,25,14,0,100,88,45,,,,5,1,0,56,25,61,0.31,8,Fog-Snow,310
2011-10-28,12,10,8,12,10,9,100,98,85,,,,0,0,0,67,54,69,0.18,5,Fog-Snow,299
2011-10-29,15,12,10,10,3,-22,100,73,17,,,,1,0,0,45,20,,0.05,7,Fog-Snow,56
2011-10-30,14,13,12,14,13,12,100,100,100,,,,0,0,0,66,47,76,1.05,,Fog-Snow,340
2011-10-31,23,18,14,23,16,5,100,90,50,,,,20,1,0,53,36,,0.00,6,Fog,285